Location: Treviso
(45.6669°N, 12.2430°E)
Time: 12:57:22
(UTC+02:00)

CUBESAT XI-V - Pass Details

Date: 29 April 2019
Orbit: 668 x 694 km, 98.0° (Epoch: 18 May)

Event Time Altitude Azimuth Distance (km) Brightness Sun altitude
Exits shadow 03:31:56 28° 152° (SSE) 1,282 ? -21.8°
Maximum altitude 03:34:22 71° 74° (ENE) 728 ? -21.6°
Drops below altitude 10° 03:39:01 10° 351° (N) 2,133 ? -21.1°
Sets 03:41:15 0° 349° (N) 3,049 ? -20.8°
